| time (UTC) | temp F | wind direction | speed MPH | gust MPH | rain 1hr in | rain 24hr in | rain mn in | humidity % | barometer mb |
| 20260507204505 | 54 | 293 | 3.0 | 8.0 | 0.00 | 0.72 | 0.05 | 72 | 920.9 |
| 20260507204006 | 54 | 225 | 5.0 | 9.0 | 0.00 | 0.72 | 0.05 | 71 | 920.8 |
| 20260507203506 | 54 | 269 | 3.0 | 7.0 | 0.00 | 0.72 | 0.05 | 74 | 920.7 |
| 20260507203006 | 53 | 284 | 3.0 | 6.0 | 0.00 | 0.72 | 0.05 | 76 | 920.8 |
| 20260507201505 | 51 | 230 | 2.0 | 5.0 | 0.00 | 0.72 | 0.05 | 79 | 921.1 |
| 20260507201006 | 51 | 243 | 2.0 | 8.0 | 0.00 | 0.72 | 0.05 | 78 | 921.2 |
| 20260507200506 | 51 | 282 | 3.0 | 7.0 | 0.00 | 0.72 | 0.05 | 78 | 921.2 |
| 20260507194506 | 51 | 268 | 3.0 | 7.0 | 0.00 | 0.72 | 0.05 | 79 | 921.2 |
| 20260507194006 | 51 | 356 | 3.0 | 6.0 | 0.00 | 0.72 | 0.05 | 78 | 921.2 |
| 20260507193505 | 51 | 274 | 5.0 | 10.0 | 0.00 | 0.72 | 0.05 | 77 | 921.2 |
| 20260507193006 | 51 | 124 | 1.0 | 7.0 | 0.00 | 0.72 | 0.05 | 78 | 921.2 |
| 20260507191506 | 51 | 344 | 3.0 | 8.0 | 0.00 | 0.72 | 0.05 | 78 | 921.4 |
| 20260507191006 | 52 | 281 | 4.0 | 9.0 | 0.00 | 0.72 | 0.05 | 80 | 921.3 |
| 20260507190006 | 51 | 339 | 3.0 | 6.0 | 0.00 | 0.72 | 0.05 | 81 | 921.5 |
| 20260507184005 | 51 | 256 | 2.0 | 6.0 | 0.00 | 0.72 | 0.05 | 79 | 921.8 |
| 20260507183506 | 51 | 275 | 1.0 | 5.0 | 0.00 | 0.72 | 0.05 | 80 | 921.8 |
| 20260507183006 | 51 | 259 | 2.0 | 6.0 | 0.00 | 0.72 | 0.05 | 81 | 921.8 |
| 20260507181006 | 51 | 184 | 2.0 | 5.0 | 0.00 | 0.72 | 0.05 | 81 | 921.5 |
| 20260507180007 | 51 | 340 | 2.0 | 6.0 | 0.00 | 0.72 | 0.05 | 80 | 921.5 |
| 20260507174505 | 51 | 276 | 2.0 | 5.0 | 0.00 | 0.72 | 0.05 | 82 | 921.6 |
| 20260507174006 | 51 | 145 | 3.0 | 7.0 | 0.00 | 0.72 | 0.05 | 79 | 921.6 |
| 20260507173506 | 51 | 167 | 1.0 | 5.0 | 0.00 | 0.72 | 0.05 | 79 | 921.7 |
| 20260507173005 | 51 | 326 | 2.0 | 7.0 | 0.00 | 0.72 | 0.05 | 80 | 921.8 |
| 20260507171505 | 51 | 76 | 1.0 | 2.0 | 0.00 | 0.72 | 0.05 | 79 | 921.6 |
| 20260507171005 | 50 | 265 | 2.0 | 5.0 | 0.00 | 0.72 | 0.05 | 82 | 921.6 |
| 20260507170505 | 50 | 315 | 2.0 | 5.0 | 0.00 | 0.72 | 0.05 | 82 | 921.8 |
| 20260507170005 | 50 | 231 | 2.0 | 9.0 | 0.00 | 0.72 | 0.05 | 80 | 921.7 |
| 20260507164505 | 50 | 19 | 3.0 | 5.0 | 0.00 | 0.72 | 0.05 | 80 | 921.6 |
| 20260507164006 | 51 | 305 | 2.0 | 5.0 | 0.00 | 0.73 | 0.05 | 80 | 921.6 |
| 20260507163505 | 51 | 108 | 2.0 | 3.0 | 0.00 | 0.73 | 0.05 | 79 | 921.7 |
| 20260507161505 | 51 | 60 | 2.0 | 6.0 | 0.00 | 0.75 | 0.05 | 80 | 921.8 |
| 20260507161005 | 50 | 228 | 1.0 | 5.0 | 0.00 | 0.75 | 0.05 | 81 | 921.8 |
| 20260507160005 | 50 | 39 | 1.0 | 6.0 | 0.00 | 0.75 | 0.05 | 80 | 921.8 |
| 20260507154505 | 48 | 166 | 1.0 | 6.0 | 0.00 | 0.82 | 0.05 | 85 | 921.8 |
| 20260507154008 | 49 | 155 | 5.0 | 8.0 | 0.00 | 0.84 | 0.05 | 81 | 921.9 |
| 20260507153505 | 49 | 124 | 3.0 | 6.0 | 0.00 | 0.84 | 0.05 | 84 | 921.8 |
| 20260507153005 | 49 | 97 | 1.0 | 5.0 | 0.00 | 1.01 | 0.05 | 85 | 921.8 |
| 20260507150505 | 46 | 339 | 1.0 | 2.0 | 0.00 | 1.01 | 0.05 | 91 | 921.9 |
| 20260507150006 | 46 | 339 | 1.0 | 3.0 | 0.00 | 1.01 | 0.05 | 91 | 922.1 |
| 20260507144504 | 46 | 142 | 2.0 | 5.0 | 0.00 | 1.03 | 0.05 | 93 | 922.1 |
| 20260507144005 | 46 | 149 | 2.0 | 3.0 | 0.00 | 1.03 | 0.05 | 94 | 922.0 |
| 20260507143505 | 45 | 138 | 1.0 | 2.0 | 0.00 | 1.03 | 0.05 | 97 | 922.0 |
| 20260507143005 | 45 | 161 | 1.0 | 2.0 | 0.00 | 1.05 | 0.05 | 97 | 922.0 |
| 20260507141504 | 45 | 109 | 1.0 | 2.0 | 0.00 | 1.08 | 0.05 | 97 | 922.0 |
| 20260507141006 | 45 | 228 | 1.0 | 2.0 | 0.00 | 1.09 | 0.05 | 97 | 922.0 |
| 20260507140505 | 45 | 86 | 1.0 | 2.0 | 0.00 | 1.09 | 0.05 | 97 | 922.1 |
| 20260507140005 | 45 | 9 | 0.0 | 3.0 | 0.00 | 1.11 | 0.05 | 98 | 922.2 |
| 20260507134504 | 45 | 132 | 2.0 | 3.0 | 0.00 | 1.14 | 0.05 | 98 | 922.0 |
| 20260507134005 | 45 | 114 | 2.0 | 5.0 | 0.00 | 1.14 | 0.05 | 97 | 922.0 |
| 20260507133504 | 46 | 71 | 2.0 | 5.0 | 0.00 | 1.14 | 0.05 | 97 | 922.1 |
| 20260507133004 | 46 | 172 | 1.0 | 3.0 | 0.00 | 1.14 | 0.05 | 98 | 922.0 |
| 20260507131504 | 46 | 138 | 0.0 | 2.0 | 0.00 | 1.15 | 0.05 | 98 | 922.2 |
| 20260507131006 | 46 | 311 | 0.0 | 1.0 | 0.00 | 1.16 | 0.05 | 98 | 922.1 |
| 20260507130506 | 46 | 209 | 0.0 | 2.0 | 0.00 | 1.16 | 0.05 | 98 | 922.1 |
| 20260507130006 | 46 | 145 | 1.0 | 3.0 | 0.00 | 1.18 | 0.05 | 98 | 922.0 |
| 20260507124506 | 46 | 193 | 2.0 | 3.0 | 0.00 | 1.22 | 0.05 | 98 | 922.1 |
| 20260507124006 | 46 | 162 | 1.0 | 6.0 | 0.00 | 1.23 | 0.05 | 98 | 922.0 |
| 20260507123506 | 46 | 154 | 1.0 | 3.0 | 0.00 | 1.25 | 0.05 | 98 | 922.0 |
| 20260507123006 | 46 | 330 | 1.0 | 3.0 | 0.00 | 1.26 | 0.05 | 98 | 922.3 |
| 20260507121505 | 47 | 172 | 1.0 | 2.0 | 0.01 | 1.29 | 0.05 | 98 | 922.1 |
| 20260507121006 | 47 | 0 | 2.0 | 3.0 | 0.01 | 1.30 | 0.05 | 98 | 922.1 |
| 20260507120506 | 47 | 4 | 1.0 | 2.0 | 0.01 | 1.31 | 0.05 | 98 | 922.0 |
| 20260507120006 | 47 | 191 | 1.0 | 6.0 | 0.01 | 1.33 | 0.05 | 98 | 921.9 |
| 20260507114506 | 48 | 310 | 2.0 | 3.0 | 0.01 | 1.35 | 0.05 | 98 | 921.7 |
| 20260507114006 | 48 | 236 | 1.0 | 2.0 | 0.01 | 1.35 | 0.05 | 98 | 921.5 |
| 20260507113506 | 48 | 259 | 1.0 | 2.0 | 0.01 | 1.35 | 0.05 | 98 | 921.6 |
| 20260507113006 | 48 | 309 | 1.0 | 2.0 | 0.01 | 1.35 | 0.05 | 98 | 921.6 |
| 20260507111507 | 48 | 211 | 2.0 | 2.0 | 0.01 | 1.36 | 0.05 | 98 | 921.6 |
| 20260507111006 | 48 | 275 | 1.0 | 2.0 | 0.00 | 1.36 | 0.04 | 98 | 921.7 |
| 20260507110005 | 48 | 148 | 2.0 | 3.0 | 0.02 | 1.36 | 0.04 | 98 | 921.3 |
| 20260507104506 | 48 | 266 | 1.0 | 3.0 | 0.03 | 1.37 | 0.04 | 98 | 921.4 |
| 20260507104005 | 48 | 291 | 1.0 | 2.0 | 0.03 | 1.37 | 0.04 | 98 | 921.2 |
| 20260507103505 | 48 | 289 | 0.0 | 2.0 | 0.03 | 1.37 | 0.04 | 98 | 921.1 |
| 20260507103005 | 48 | 307 | 0.0 | 2.0 | 0.03 | 1.37 | 0.04 | 98 | 921.1 |
| 20260507101507 | 48 | 302 | 1.0 | 2.0 | 0.06 | 1.37 | 0.08 | 98 | 921.3 |
| 20260507101006 | 48 | 210 | 0.0 | 1.0 | 0.06 | 1.37 | 0.07 | 98 | 921.1 |
| 20260507100506 | 48 | 301 | 0.0 | 2.0 | 0.05 | 1.35 | 0.07 | 98 | 920.9 |
| 20260507100005 | 48 | 13 | 0.0 | 2.0 | 0.01 | 1.33 | 0.02 | 98 | 920.9 |
| 20260507094006 | 48 | 31 | 1.0 | 1.0 | 0.00 | 1.33 | 0.01 | 98 | 920.8 |
| 20260507093506 | 48 | 126 | 0.0 | 1.0 | 0.00 | 1.34 | 0.01 | 98 | 920.8 |
| 20260507093006 | 48 | 127 | 0.0 | 2.0 | 0.00 | 1.34 | 0.01 | 98 | 920.9 |
| 20260507091505 | 48 | 306 | 0.0 | 1.0 | 0.00 | 1.34 | 0.01 | 98 | 921.3 |
| 20260507091005 | 48 | 160 | 0.0 | 1.0 | 0.00 | 1.34 | 0.01 | 98 | 921.4 |
| 20260507090506 | 48 | 155 | 1.0 | 2.0 | 0.00 | 1.34 | 0.01 | 98 | 921.4 |
| 20260507090006 | 48 | 191 | 1.0 | 3.0 | 0.00 | 1.34 | 0.01 | 98 | 921.6 |
| 20260507084006 | 48 | 268 | 1.0 | 3.0 | 0.00 | 1.34 | 0.01 | 98 | 921.6 |
| 20260507083005 | 48 | 214 | 1.0 | 5.0 | 0.00 | 1.34 | 0.01 | 98 | 921.5 |
| 20260507081505 | 48 | 296 | 1.0 | 2.0 | 0.00 | 1.34 | 0.01 | 98 | 921.3 |
| 20260507081005 | 48 | 305 | 1.0 | 2.0 | 0.00 | 1.34 | 0.01 | 98 | 921.1 |
| 20260507080005 | 48 | 246 | 1.0 | 5.0 | 0.00 | 1.34 | 0.01 | 98 | 921.2 |
| 20260507074506 | 49 | 247 | 1.0 | 7.0 | 0.00 | 1.34 | 0.01 | 98 | 921.6 |
| 20260507074005 | 49 | 224 | 2.0 | 3.0 | 0.00 | 1.34 | 0.01 | 98 | 921.5 |
| 20260507073005 | 49 | 350 | 1.0 | 9.0 | 0.00 | 1.34 | 0.01 | 98 | 921.5 |
| 20260507071505 | 50 | 252 | 0.0 | 2.0 | 0.00 | 1.34 | 0.01 | 98 | 921.5 |
| 20260507071005 | 50 | 335 | 1.0 | 2.0 | 0.00 | 1.34 | 0.01 | 98 | 921.5 |
| 20260507070505 | 50 | 262 | 1.0 | 2.0 | 0.00 | 1.34 | 0.01 | 98 | 921.5 |
| 20260507070009 | 50 | 205 | 1.0 | 6.0 | 0.00 | 1.34 | 0.01 | 98 | 921.7 |
| 20260507064505 | 50 | 261 | 1.0 | 3.0 | 0.00 | 1.34 | 0.01 | 98 | 921.8 |
| 20260507064004 | 50 | 265 | 1.0 | 3.0 | 0.00 | 1.34 | 0.01 | 98 | 921.7 |
| 20260507063505 | 50 | 274 | 2.0 | 5.0 | 0.00 | 1.34 | 0.01 | 98 | 921.8 |
| 20260507063005 | 50 | 255 | 1.0 | 3.0 | 0.00 | 1.34 | 0.01 | 98 | 921.8 |
| 20260507061505 | 50 | 330 | 0.0 | 5.0 | 0.00 | 1.34 | 0.02 | 98 | 921.6 |
| 20260507060005 | 51 | 211 | 2.0 | 6.0 | 0.01 | 1.34 | 0.02 | 98 | 922.0 |
| 20260507054504 | 51 | 180 | 2.0 | 6.0 | 0.02 | 1.34 | 0.02 | 98 | 921.6 |
| 20260507053005 | 52 | 209 | 2.0 | 7.0 | 0.02 | 1.34 | 0.02 | 98 | 921.5 |
| 20260507051505 | 53 | 294 | 1.0 | 2.0 | 0.01 | 1.34 | 0.01 | 98 | 921.7 |
| 20260507051004 | 53 | 259 | 1.0 | 3.0 | 0.01 | 1.34 | 0.01 | 98 | 921.6 |
| 20260507050505 | 53 | 294 | 0.0 | 2.0 | 0.01 | 1.33 | 0.01 | 98 | 921.7 |
| 20260507050005 | 53 | 287 | 2.0 | 3.0 | 0.01 | 1.33 | 0.01 | 98 | 921.8 |
| 20260507044504 | 53 | 211 | 1.0 | 3.0 | 0.00 | 1.33 | 0.00 | 98 | 922.1 |
| 20260507043504 | 53 | 277 | 3.0 | 5.0 | 0.00 | 1.32 | 0.00 | 98 | 922.2 |
| 20260507043004 | 53 | 250 | 2.0 | 8.0 | 0.00 | 1.32 | 0.00 | 98 | 922.4 |
| 20260507041504 | 54 | 232 | 4.0 | 8.0 | 0.00 | 1.32 | 0.00 | 98 | 922.3 |
| 20260507041004 | 54 | 268 | 3.0 | 5.0 | 0.00 | 1.32 | 0.00 | 98 | 922.1 |
| 20260507040507 | 54 | 226 | 3.0 | 7.0 | 0.00 | 1.32 | 0.00 | 98 | 921.5 |
| 20260507040006 | 54 | 305 | 2.0 | 6.0 | 0.04 | 1.33 | 0.00 | 98 | 921.3 |
| 20260507034507 | 54 | 7 | 3.0 | 6.0 | 0.04 | 1.33 | 1.22 | 98 | 920.6 |
| 20260507034006 | 54 | 352 | 5.0 | 8.0 | 0.04 | 1.33 | 1.22 | 98 | 920.7 |
| 20260507033507 | 54 | 345 | 3.0 | 5.0 | 0.04 | 1.33 | 1.22 | 98 | 920.7 |
| 20260507033006 | 54 | 288 | 3.0 | 5.0 | 0.04 | 1.33 | 1.22 | 98 | 921.1 |
| 20260507031505 | 54 | 327 | 0.0 | 1.0 | 0.05 | 1.33 | 1.22 | 97 | 921.5 |
| 20260507030506 | 54 | 343 | 2.0 | 3.0 | 0.06 | 1.33 | 1.22 | 97 | 921.5 |
| 20260507030006 | 54 | 343 | 1.0 | 3.0 | 0.12 | 1.28 | 1.17 | 97 | 921.6 |
| 20260507024506 | 54 | 76 | 1.0 | 3.0 | 0.14 | 1.28 | 1.17 | 96 | 922.3 |
| 20260507024006 | 54 | 296 | 1.0 | 3.0 | 0.14 | 1.28 | 1.17 | 96 | 922.5 |
| 20260507023506 | 54 | 280 | 1.0 | 2.0 | 0.13 | 1.28 | 1.17 | 96 | 922.7 |
| 20260507023006 | 54 | 292 | 0.0 | 2.0 | 0.20 | 1.28 | 1.17 | 96 | 922.8 |
| 20260507021506 | 54 | 302 | 2.0 | 5.0 | 0.20 | 1.27 | 1.16 | 96 | 922.9 |
| 20260507021006 | 54 | 259 | 2.0 | 7.0 | 0.20 | 1.27 | 1.16 | 96 | 922.7 |
| 20260507020506 | 54 | 254 | 2.0 | 6.0 | 0.20 | 1.27 | 1.16 | 96 | 922.8 |
| 20260507020006 | 54 | 177 | 2.0 | 7.0 | 0.09 | 1.16 | 1.05 | 96 | 922.7 |
| 20260507014005 | 55 | 349 | 2.0 | 5.0 | 0.22 | 1.15 | 1.04 | 96 | 922.5 |
| 20260507013506 | 55 | 279 | 2.0 | 5.0 | 0.22 | 1.15 | 1.04 | 96 | 922.4 |
| 20260507013006 | 55 | 220 | 2.0 | 5.0 | 0.15 | 1.08 | 0.97 | 96 | 922.4 |
| 20260507011505 | 56 | 231 | 0.0 | 3.0 | 0.12 | 1.08 | 0.97 | 95 | 922.4 |
| 20260507011006 | 56 | 255 | 2.0 | 9.0 | 0.11 | 1.07 | 0.96 | 95 | 922.1 |
| 20260507010505 | 56 | 233 | 3.0 | 6.0 | 0.29 | 1.07 | 0.96 | 95 | 921.9 |
| 20260507010006 | 57 | 100 | 1.0 | 7.0 | 0.29 | 1.07 | 0.96 | 95 | 921.0 |
| 20260507003505 | 58 | 305 | 0.0 | 1.0 | 0.16 | 0.93 | 0.82 | 93 | 920.7 |
| 20260507001505 | 59 | 282 | 1.0 | 3.0 | 0.19 | 0.93 | 0.85 | 92 | 920.7 |
| 20260507001005 | 59 | 292 | 3.0 | 7.0 | 0.19 | 0.93 | 0.85 | 92 | 920.8 |
| 20260507000505 | 60 | 340 | 5.0 | 9.0 | 0.01 | 0.75 | 0.67 | 91 | 920.9 |
| 20260506234506 | 63 | 340 | 0.0 | 2.0 | 0.00 | 0.75 | 0.66 | 88 | 920.7 |
| 20260506233505 | 63 | 317 | 1.0 | 3.0 | 0.00 | 0.75 | 0.66 | 88 | 920.8 |
| 20260506233006 | 63 | 319 | 1.0 | 8.0 | 0.00 | 0.75 | 0.66 | 87 | 920.8 |
| 20260506231005 | 64 | 294 | 4.0 | 9.0 | 0.00 | 0.75 | 0.66 | 85 | 920.9 |
| 20260506230505 | 64 | 286 | 3.0 | 8.0 | 0.00 | 0.75 | 0.66 | 85 | 920.9 |
| 20260506224506 | 64 | 297 | 5.0 | 8.0 | 0.00 | 0.75 | 0.66 | 84 | 920.9 |
| 20260506224006 | 64 | 286 | 5.0 | 12.0 | 0.00 | 0.75 | 0.66 | 84 | 920.9 |
| 20260506223505 | 64 | 297 | 5.0 | 9.0 | 0.00 | 0.75 | 0.66 | 84 | 920.8 |
| 20260506223005 | 64 | 315 | 5.0 | 10.0 | 0.00 | 0.75 | 0.66 | 84 | 920.6 |
| 20260506221005 | 64 | 301 | 4.0 | 8.0 | 0.01 | 0.75 | 0.66 | 85 | 920.8 |
| 20260506220505 | 64 | 327 | 3.0 | 9.0 | 0.01 | 0.75 | 0.66 | 85 | 920.9 |
| 20260506220005 | 64 | 309 | 4.0 | 9.0 | 0.01 | 0.75 | 0.66 | 85 | 920.9 |
| 20260506214505 | 64 | 311 | 5.0 | 7.0 | 0.01 | 0.74 | 0.65 | 84 | 920.9 |
| 20260506214005 | 64 | 288 | 3.0 | 7.0 | 0.01 | 0.74 | 0.65 | 85 | 920.8 |
| 20260506213505 | 64 | 273 | 5.0 | 8.0 | 0.01 | 0.74 | 0.65 | 84 | 920.8 |
| 20260506213005 | 64 | 320 | 3.0 | 9.0 | 0.01 | 0.74 | 0.65 | 85 | 920.7 |
| 20260506211504 | 64 | 305 | 5.0 | 9.0 | 0.00 | 0.73 | 0.64 | 84 | 920.9 |
| 20260506210005 | 64 | 297 | 5.0 | 13.0 | 0.00 | 0.73 | 0.64 | 83 | 920.7 |